DECAYED

STARLINK-1138, 45178 (Decayed)

Orbit data source: Space-Track

STARLINK-1138, 45178 was a payload satellite owned by SpaceX/Seattle (US) in LEO that was launched on Mon, 17 Feb 2020 UTC via an FALCON 9 launch vehicle from the Air Force Eastern Test Range (AFETR). Payload-class satellites include a variety of spacecraft equipped with specific instruments for various scientific and technological missions. These include communications satellites like Starlink; space stations such as the ISS; scientific satellites like the Hubble; Earth observation satellites from companies like Planet Labs, Umbra, and HawkEye 360; GPS; miniature CubeSats for education and research; and military/defense satellites.

Not visible in the next 10 days
Identifier
45178, 2020-012A
Orbit
Decayed
Country
Flag of USUS
Related business
Manufacturer
SpaceX/Seattle
Mission
Decayed Commercial Communications
Bus & Motor
STARLINK, Unknown motor
Mass
260 kg wet, ~248 kg dry
Launch date (UTC)
2020-02-17 (6 years ago)
Launch vehicle
FALCON 9
Launch site
Air Force Eastern Test Range (AFETR)
Object type
Payload
Rocket body
Debris
Shape & HBR
Box + 1 Pan, 10.1 m
Radar Cross Section
13.562 m², Large (>1 m²)

Expand to show TLE details & history
Last TLE update: 9 months ago

TLE from 9 months ago
0 STARLINK-1138
1 45178U 20012A   25024.07640356  .19819865  12526-4  34025-3 0  9998
2 45178  53.0286  49.5129 0003757 214.9461 243.3866 16.47766170272941
Epoch: 2025-01-24T01:50Z
TLE epoch observation values (Epoch: 2025-01-24T01:50:01.267Z)
Latitude
52.39816°
Longitude
2.0039°
Altitude
152.619 km
Speed
7.821 km/s
True Right ascension
10h 12m 36s
True Declination
52° 12' 59"
Sunlit
Object was in full shadow at epoch
Visualization orbit readout
Latitude
Unknown
Longitude
Unknown
Altitude
Unknown
Speed
Unknown
Apparent Right ascension
Unknown
Apparent Declination
Unknown
Sunlit
N/A
Visualization observer readout
Local Sidereal Time
17:40:23
Azimuth
Unknown
Elevation
Unknown
Doppler factor
Unknown
Orbital elements
Apogee altitude
147.967 km
Perigee altitude
143.065 km
Semi-major axis
6,523.653 km
Eccentricity
0.00038
Inclination
53.0286°
RAAN
49.5129°
Arg. of periapsis
214.9461°
True anomaly
243.34812°
Mean anomaly
243.3866°
Eccentric anomaly
243.36736°
Mean motion
4.11914 °/min
Orbital period
87.4 mins
BSTAR
0.00034025
Loading maneuver chart data...
Computing Atmospheric mass density...

Documentation

Showing up to 5 results
|